User: anonymous   Login
Location: Unspecified
(0.0000°N, 0.0000°E)
Time: 18:23:18
(UTC+00:00)
Language:

STARLINK-3895 - Orbit

View from above orbital plane
View from above orbital plane
View from above satellite
View from above satellite

Ground track
Ground track

The orbit is defined by the following mean orbital elements,

1 52583U          26145.24404435 +.00000000 +00000-0 +52162-4 0 00000
2 52583  53.2154 135.4533 0001370  69.6322 290.4817 15.08845168    05
Epoch (UTC): 25 May 2026 05:51:25
Eccentricity: 0.0001370
inclination: 53.2154°
perigee height: 539 km
apogee height: 541 km
right ascension of ascending node: 135.4533°
argument of perigee: 69.6322°
revolutions per day: 15.08845168
mean anomaly at epoch: 290.4817°

The dashed part of the orbit path shows where the satellite is in the earth's shadow,  

DLR